Lid_Strength_Index
12 11 11 11 10 10 12 12 14 13 13 11 9 10 8 8 7 7 7 6 6 7 7 7 7 5 4 3 3 3 2 2 2 2 3 3 3 3 3 2 2 2 3 3
14 11 11 12 10 10 10 11 11 11 12 9 8 8 8 7 7 7 7 6 6 6 5 5 5 4 3 3 3 2 2 2 3 3 3 3 3 2 2 1 2 3 3 3
16 12 12 14 12 11 11 10 10 13 10 9 10 9 8 7 7 7 6 6 5 5 4 4 3 3 3 3 2 2 2 3 3 2 2 2 1 1 2 2 2 3 4 4
16 14 19 11 9 9 11 10 10 10 9 9 9 8 7 6 6 6 6 5 5 4 4 4 4 4 3 3 2 3 3 3 2 1 1 1 1 1 1 3 3 3 4 3
17 17 14 12 11 11 12 12 9 10 9 8 7 7 7 5 5 5 5 4 4 4 3 4 4 4 4 5 4 4 4 3 3 2 2 2 2 2 3 3 3 4 3 3
16 19 20 13 9 8 8 15 8 8 9 8 8 12 10 5 5 5 4 4 3 3 3 4 5 4 5 5 5 5 4 4 3 2 2 2 3 4 4 3 3 3 3 3
16 17 14 10 8 7 16 14 8 8 7 8 9 8 6 5 5 4 4 3 3 3 4 4 4 4 5 5 5 5 4 4 3 2 3 3 4 3 3 3 3 3 3 4
15 17 18 8 9 13 10 8 7 7 7 7 7 6 6 5 5 4 4 4 3 3 3 4 4 4 4 4 4 4 3 3 4 3 4 3 3 3 3 3 3 3 4 4
13 13 9 7 8 6 6 7 7 7 6 6 6 6 5 5 5 4 4 3 3 3 3 3 3 4 5 5 4 4 4 4 4 3 3 3 3 3 3 3 3 4 4 4
11 10 9 7 6 5 5 6 5 5 5 5 6 5 5 5 5 4 4 4 3 3 4 4 3 3 3 3 3 3 4 4 4 4 3 3 3 3 3 3 4 4 5 5
11 9 7 7 6 6 6 5 5 4 4 5 5 5 5 5 5 4 5 4 4 4 4 4 4 4 4 3 3 4 4 4 4 3 3 3 3 4 3 4 4 4 5 4
13 8 8 8 6 5 6 7 6 7 6 6 4 5 4 5 5 4 5 5 5 7 6 6 5 4 3 3 3 4 3 4 4 4 4 4 4 4 7 7 8 7 7 5
8 6 6 5 5 4 6 6 6 6 6 7 6 5 6 8 8 7 7 7 7 6 6 4 3 3 3 3 3 3 3 4 4 4 5 5 5 5 5 5 6 7 7 7
5 5 7 6 6 6 6 6 5 5 5 5 6 6 7 8 7 6 6 5 5 4 3 3 3 3 3 3 3 3 3 6 4 5 4 5 5 5 5 5 5 4 5 7
5 5 6 6 6 6 6 6 7 7 6 6 5 6 6 6 5 5 4 3 3 3 2 3 3 3 1 2 3 3 3 4 4 4 5 5 5 5 5 5 5 5 5 5
6 7 6 6 6 6 5 6 7 7 6 6 6 5 5 4 4 4 3 3 3 4 3 3 3 2 2 2 3 2 2 5 6 4 4 4 5 5 5 5 5 5 4 4
7 7 7 7 6 6 6 6 6 6 6 6 6 5 5 5 6 5 4 3 4 4 4 4 4 3 2 1 2 2 2 2 5 4 5 4 5 5 5 5 5 4 4 5
5 6 6 6 6 6 7 6 6 6 7 6 6 6 7 7 7 7 6 5 5 5 5 4 3 2 2 2 3 3 2 2 3 4 4 4 5 5 6 6 5 5 4 4
5 6 6 6 6 6 7 7 7 6 6 6 6 6 6 6 6 6 6 6 7 6 5 4 4 3 3 3 4 2 1 2 3 3 4 5 4 5 5 5 5 4 4 3
5 6 5 5 5 5 6 5 6 6 6 6 6 7 7 7 6 6 6 6 6 6 5 4 3 3 4 3 5 2 2 2 3 3 3 3 4 4 4 6 4 4 4 4
6 5 5 5 5 5 5 5 6 6 6 6 7 7 7 7 6 6 7 7 5 5 4 4 4 4 4 5 4 3 3 4 5 5 5 5 5 6 5 5 5 5 5 5
6 6 5 5 6 6 6 6 6 6 7 7 7 7 7 7 6 6 6 6 5 9 5 5 6 10 7 8 5 5 5 5 6 6 6 6 6 6 6 6 6 6 6 6
6 6 6 6 6 7 6 6 6 6 6 6 6 6 6 6 7 6 6 5 5 7 6 7 11 11 11 6 6 6 6 6 6 7 7 7 7 7 7 7 7 7 7 7
7 7 7 6 6 6 6 6 6 6 6 6 6 6 6 6 5 4 4 6 10 8 8 8 10 11 10 7 7 7 7 7 7 6 7 9 7 7 7 8 8 8 8 9
7 6 6 7 7 6 6 6 6 6 6 6 5 5 5 4 4 5 4 5 9 8 7 12 11 11 7 7 7 7 7 7 7 7 7 7 8 8 9 9 9 9 9 9
6 6 6 6 6 5 6 6 6 6 5 5 5 5 4 5 5 6 7 7 7 8 7 7 7 7 7 7 7 7 7 7 7 7 8 8 8 8 8 8 9 9 9 9
6 7 6 6 5 4 5 6 5 5 6 5 5 4 4 5 6 7 9 7 7 7 7 7 6 7 7 7 7 8 8 8 9 7 8 8 9 9 9 9 9 9 9 9